Вернуться в каталог

BEIDOU 3 M28

АктивенНавигацияMEO
NORAD 58654·PAYLOAD·🇨🇳 China

Запущен Dec 26, 2023 с Xichang Satellite Launch Center

Loading…

Ближайшие Пролёты (ближайшие 24 часа)

TLE

СвежийSource: Space-Track

Эпоха: Sep 14, 2026, 10:25 UTC

1 58654U 23207A   26257.43424630 -.00000051  00000-0  00000-0 0  9997
2 58654  55.8368  59.2971 0000655  45.3182 314.6983  1.86229739 18502

Отслеживайте BEIDOU 3 M28 в реальном времени с AllMySat

Download on the App Store